Regional Weather Roundup
Issued by NWS Goodland, KS

Home | Current Version | Previous Version | Text Only | Print | Product List | Glossary On
Versions: 1 2 3 4 5 6 7 8 9 10 11 12 13 14 15 16 17 18 19 20 21 22 23 24 25 26 27 28 29 30 31 32 33 34 35 36 37 38 39 40 41 42 43 44 45 46 47 48 49 50
000
ASUS43 KGLD 121308
RWRGLD

GOODLAND FORECAST AREA HOURLY WEATHER ROUNDUP
NATIONAL WEATHER SERVICE GOODLAND KS
700 AM MDT SAT JUL 12 2014

...OFFICIAL OBSERVATIONS...

CITY           SKY/WX    TMP DP  RH WIND       PRES   REMARKS
GOODLAND KS    PTSUNNY   67  64  90 NW8       30.09R
HILL CITY KS   MOSUNNY   75  61  61 SW7       30.02S
IMPERIAL NEB   PTSUNNY   69  66  90 NW12      30.08R
MCCOOK NEB     PTSUNNY   73  70  90 N6        30.02R
AKRON CO       CLOUDY    63  62  97 N6        30.18R FOG
BURLINGTON CO  FOG       66  64  93 N10       30.13R VSB 1
LIMON CO       MOSUNNY   64  61  90 NW9       30.21S
$$

...UNOFFICIAL OBSERVATIONS...

CITY           SKY/WX    TMP DP  RH WIND       PRES   REMARKS
COLBY KS       SUNNY     72  66  83 CALM      30.07S
GOVE KS          N/A     73  32  22 CALM        N/A
LENORA KS        N/A     70  32  24 MISG        N/A
NORTON KS      SUNNY     75  55  50 S10       30.00S
OBERLIN KS     FAIR      72  63  73 W3        30.02R
SHARON SPRINGS   N/A     69  61  77 CALM        N/A
ST FRANCIS KS  PTSUNNY   72  64  78 NW6       30.08R
TRIBUNE KS     SUNNY     72 N/A N/A SW8       30.09
WAKEENEY KS      N/A     73  59  62 MISG        N/A
KIT CARSON CO    N/A     69  63  81 N9          N/A
WRAY CO        CLOUDY    68  66  94 NW12      30.12R
YUMA CO          N/A     65  63  92 N9          N/A
$$



USA.gov is the U.S. government's official web portal to all federal, state and local government web resources and services.